JILIN-01 GAOFEN 3D 30 (52447 NORAD) Tracking and Keplerian Element Data

This shows tracking and keplerian element data for the satellite.

Feedback or suggestion? Click here.




ElementValue
Catalog52447
NameJILIN-01 GAOFEN 3D 30
Epoch Orbit244
Epoch Day141.20454307
Epoch Year2022
RAAN205.8215
Inclination97.6793
Eccentricity0.0014439
Argument of Perigee215.5474
Mean Anonmoly205.0481
Mean Motion15.0983215
Decay Rate8.248E-05
L11 52447U 22048E 22141.20454307 .00008248 00000+0 51260-3 0 9991
L22 52447 97.6793 205.8215 0014439 215.5474 205.0481 15.09832150 2441

Live tracking and technical data element details for JILIN-01 GAOFEN 3D 30 (NORAD 52447). JILIN-01 GAOFEN 3D 30 can be tracked NOW for your location showing map with azimuth and elevation plus other details from your city location.

Track the satellite on the map from your city or location and see movement details for azimuth, elevation, latitude, longitude, range, height, and movement on the map or in text.







IsCatalogInMostPopularTable: catalog: 52447, numindb: 2
Update: records affected: 1



GetName: 52447 JILIN-01 GAOFEN 3D 30

Hit Count: updated at: Mon, 23 May 2022 18:42:56 GMT